Regional Weather Roundup
Issued by NWS

Home | Current Version | Previous Version | Text Only | Print | Product List | Glossary Off
Versions: 1 2 3 4 5 6 7 8 9 10 11 12 13 14 15 16 17 18 19 20 21 22 23 24 25 26 27 28 29 30 31 32 33 34 35 36 37 38 39 40 41 42 43 44 45 46 47 48 49 50

000
ASUS45 KABQ 060810
RWRNM
NEW MEXICO REGIONAL WEATHER ROUNDUP
NATIONAL WEATHER SERVICE ALBUQUERQUE NM
200 AM MDT FRI MAY 06 2016

NOTE: "FAIR" MEANS FEW OR NO CLOUDS BELOW 12,000 FEET AGL WITH NO
       SIGNIFICANT WEATHER OR OBSTRUCTIONS TO VISION.

      THIS PRODUCT IS RELEASED AS TWO VERSIONS.  ONE VERSION NEAR
      THE TOP OF THE HOUR CONTAINING PRELIMINARY DATA FROM ALBUQUERQUE
      AND OTHER STATIONS.  A FINAL VERSION WITH ADDITIONAL DATA IS
      ISSUED ABOUT 10 MINUTES AFTER THE HOUR.

NMZ501-503-504-510>518-060900-
NORTHWEST PLATEAU/NORTHCENTRAL MOUNTAINS

CITY           SKY/WX    TMP DP  RH WIND       PRES   REMARKS
FARMINGTON     FAIR      66  28  24 SE16      29.92S
LOS ALAMOS     FAIR      56  20  24 S6        30.17S
SANTA FE       FAIR      59  20  22 SE20      30.09F
TAOS           FAIR      46  25  42 N7        30.15S
ANGEL FIRE     FAIR      47  21  36 S15       30.23F

$$
NMZ402-403-502-505>509-060900-
WESTCENTRAL MOUNTAINS/SOUTHWEST MOUNTAINS

CITY           SKY/WX    TMP DP  RH WIND       PRES   REMARKS
GALLUP         FAIR      62  33  33 SW14      29.99S
GRANTS         MOCLDY    60  33  35 S8        30.05S
SILVER CITY      N/A     54  23  30 NW5       30.02F

$$
NMZ407-409-411-412-060900-
SOUTHERN DESERTS

CITY           SKY/WX    TMP DP  RH WIND       PRES   REMARKS
LORDSBURG      FAIR      61   9  12 S8        29.92F
DEMING         FAIR      60  32  34 NW3       29.94F
LAS CRUCES     FAIR      71  28  19 SE10      29.96F
HOLLOMAN AFB   FAIR      76  25  15 SE20G26   29.92F
T OR C         FAIR      70  30  22 S15G24    29.95F

$$
NMZ519>523-060900-
CENTRAL VALLEYS/CENTRAL HIGHLANDS

CITY           SKY/WX    TMP DP  RH WIND       PRES   REMARKS
ALBUQUERQUE    FAIR      66  23  19 S10       30.02R
DOUBLE EAGLE   FAIR      54  27  34 SE7       30.04S
MORIARTY ARPT  FAIR      49  21  32 SW8       30.11F
CLINES CORNERS FAIR      54  21  27 S20       30.13F
BELEN          FAIR      66  21  18 SE9       29.99F
SOCORRO        FAIR      69  28  21 S15       29.96F

$$
NMZ524>526-539-540-060900-
SOUTHCENTRAL MOUNTAINS

CITY           SKY/WX    TMP DP  RH WIND       PRES   REMARKS
RUIDOSO          N/A     54  19  26 SE6       30.18F

$$
NMZ527>531-060900-
NORTHEAST HIGHLANDS/NORTHEAST PLAINS

CITY           SKY/WX    TMP DP  RH WIND       PRES   REMARKS
LAS VEGAS      FAIR      50  23  34 S12       30.16F
RATON          FAIR      46  27  47 N8        30.14S
CLAYTON        FAIR      52  31  44 SW6       30.07F

$$
NMZ532>537-060900-
EASTCENTRAL PLAINS

CITY           SKY/WX    TMP DP  RH WIND       PRES   REMARKS
TUCUMCARI      FAIR      60  27  28 S3        30.03F
CANNON AFB     NOT AVBL
CLOVIS AIRPORT FAIR      55  30  38 S9        30.09F

$$
NMZ028-029-538-060900-
SOUTHEAST PLAINS

CITY           SKY/WX    TMP DP  RH WIND       PRES   REMARKS
ROSWELL        FAIR      58  25  28 S3        30.02F
ARTESIA        FAIR      59  27  29 S10       30.01F
CARLSBAD       FAIR      61  24  24 S9        30.00F
HOBBS          FAIR      55  32  41 E7        30.07F


$$



USA.gov is the U.S. government's official web portal to all federal, state and local government web resources and services.